Temp
69 69 70 71 73 74 74 76 80 81 81 81 81 82 82 81 80 79 79 78 78 76 76 77 77 77 77 77 77 77 77 76 77 78 77 77 78 78 78 78 79 78 78 78 77 78 79 79 79 79 79 79 79 78 77 78 78 79 78 78 78 79 78
69 70 69 70 70 71 73 73 74 78 80 81 81 82 82 81 79 79 79 78 78 78 76 77 77 77 77 77 77 77 77 77 77 79 78 77 79 78 79 78 79 78 78 79 78 79 79 80 80 79 79 79 79 79 78 78 78 78 78 77 77 77 77
69 69 69 70 71 71 71 72 72 72 73 75 78 81 81 80 80 80 79 79 78 78 77 77 78 78 78 77 77 77 77 77 77 78 78 78 78 80 80 79 79 80 80 80 79 80 81 80 79 80 80 79 80 79 79 78 78 79 78 77 77 78 76
69 69 70 71 72 72 73 71 71 72 73 74 75 76 75 77 80 80 80 80 78 78 77 77 78 78 78 77 77 77 77 77 78 79 79 79 79 80 79 78 79 80 79 79 81 82 83 81 80 79 81 79 79 80 79 79 79 78 78 78 77 77 77
69 71 71 71 71 71 72 72 72 72 73 74 74 74 75 77 78 80 80 81 81 79 79 79 80 80 79 79 80 79 78 78 78 78 79 79 79 79 80 80 79 80 80 81 80 80 79 80 80 79 80 79 79 79 79 79 79 79 78 78 77 77 78
69 69 69 70 71 72 73 73 74 74 74 73 73 74 76 77 77 79 79 79 80 81 81 80 79 80 79 80 81 80 79 78 78 78 79 78 78 79 79 80 80 80 80 80 81 81 79 80 80 80 80 80 80 80 80 79 79 80 78 78 78 79 78
67 69 69 70 71 72 72 73 74 74 74 74 75 76 76 75 74 75 76 76 77 78 79 79 80 79 79 80 80 80 78 79 78 79 79 79 79 79 79 79 80 80 81 79 80 81 80 79 79 80 80 81 80 80 79 78 79 79 79 77 78 78 78
68 68 69 70 72 72 71 71 72 73 73 74 74 74 75 75 74 74 75 76 76 77 77 76 77 78 78 79 80 80 80 80 79 80 79 80 79 79 79 79 79 80 80 80 80 80 81 80 81 80 81 81 79 79 79 79 78 79 78 78 77 78 80
68 68 69 70 71 73 72 72 71 72 72 72 72 73 73 72 72 73 73 74 75 75 76 77 77 79 78 78 78 78 80 81 80 80 79 81 80 80 81 80 80 80 80 81 81 80 81 81 81 79 79 80 79 78 78 78 78 78 78 78 77 77 78
67 67 69 71 71 72 72 72 72 71 71 71 71 72 72 73 73 73 73 74 74 74 75 76 76 76 76 76 77 78 77 78 80 81 81 81 81 81 81 83 81 81 81 82 82 81 80 81 81 80 79 79 79 78 78 77 78 78 78 78 78 78 77
67 67 68 69 69 70 71 71 71 70 70 70 70 71 71 72 72 72 73 74 74 74 75 76 75 75 74 74 75 76 75 77 77 79 81 82 82 82 82 83 83 81 82 82 82 83 81 79 80 79 79 80 79 78 78 78 78 78 79 78 79 79 79
67 67 67 67 68 69 68 69 71 71 70 70 70 71 71 71 72 72 73 73 74 74 74 75 74 74 73 73 72 71 72 73 76 78 78 81 83 83 84 83 83 83 82 83 82 82 83 81 80 80 79 80 80 79 79 78 78 78 79 79 79 78 79
68 67 68 68 67 68 69 69 69 69 70 71 71 71 72 72 72 72 73 73 74 75 74 75 75 74 74 74 74 73 73 73 75 78 79 79 80 81 82 82 82 83 83 84 84 83 82 83 81 80 80 79 80 80 79 78 78 78 78 79 79 78 78
68 68 69 69 69 68 67 68 69 70 70 71 73 73 72 72 72 72 73 73 73 73 73 74 75 74 73 73 73 72 72 73 73 76 76 77 76 77 79 79 78 79 78 80 83 84 84 83 83 82 82 81 80 80 80 79 78 77 78 78 79 79 78
67 67 68 68 68 68 67 67 67 68 70 70 71 71 72 71 71 72 72 72 72 72 72 73 74 74 74 73 72 72 73 73 74 75 76 77 76 77 77 76 77 76 78 78 80 85 85 85 84 83 82 82 82 81 81 80 80 79 79 78 78 79 79
67 68 68 68 69 69 68 68 67 67 69 70 70 70 71 71 73 73 72 71 72 72 72 72 74 73 73 73 73 73 73 73 74 74 75 75 75 76 76 77 77 77 76 76 77 77 78 79 81 83 83 82 82 81 82 81 82 80 77 77 80 78 81
66 67 68 69 69 69 68 68 68 68 67 68 70 71 71 71 72 74 75 74 72 71 72 73 72 73 73 73 73 74 73 73 73 73 73 74 74 75 75 76 76 74 75 75 75 75 75 77 80 81 82 82 82 81 82 84 85 77 70 71 74 81 79
65 65 66 67 68 68 69 69 68 67 66 68 70 71 71 71 72 73 72 72 71 72 72 72 71 71 71 72 72 73 73 73 74 73 74 74 74 74 74 74 74 74 74 75 75 74 76 76 77 78 80 82 82 82 83 83 80 72 70 69 69 75 81
64 65 65 66 67 67 67 68 69 68 68 68 67 68 70 71 71 70 70 70 71 72 71 70 71 71 71 71 71 72 72 72 73 73 74 74 74 74 73 73 73 73 73 74 75 75 74 75 76 76 77 79 78 81 82 83 77 70 69 69 68 68 75
64 65 65 66 66 66 65 66 66 68 68 67 68 70 70 71 71 70 71 71 70 70 70 70 70 70 71 71 71 71 72 72 72 72 73 73 73 73 73 73 73 73 73 74 74 73 74 76 75 75 74 75 76 75 78 80 78 70 67 67 67 68 70
63 64 63 63 63 64 63 63 64 65 66 68 69 68 68 69 70 69 69 69 69 69 68 69 69 68 69 70 70 71 70 71 71 72 72 73 72 72 72 72 72 73 73 73 73 73 73 73 74 75 75 76 77 76 78 82 74 68 66 65 65 66 68
65 65 64 63 62 62 63 64 63 64 65 67 67 67 66 67 69 68 67 67 67 67 67 66 67 67 68 68 69 69 70 71 70 71 71 72 72 72 71 71 71 71 73 73 73 73 73 73 74 74 75 76 76 77 77 81 71 68 65 63 63 65 70
67 66 65 63 65 64 64 65 65 65 66 66 67 67 66 66 67 68 66 65 65 65 65 65 65 66 67 68 69 69 69 70 71 71 71 71 71 70 71 71 71 71 72 72 73 73 72 73 74 74 75 76 76 75 76 78 71 65 64 60 60 64 71
68 67 67 65 64 66 65 66 66 67 66 66 65 65 64 66 67 66 65 64 64 63 64 64 64 65 66 67 68 68 69 69 69 69 70 71 71 71 71 71 71 71 72 71 72 73 74 74 74 74 75 76 75 77 76 77 75 63 62 62 58 66 71
67 67 66 65 65 65 65 64 66 66 65 65 64 64 65 65 65 66 64 64 63 64 63 63 64 65 65 66 66 67 68 69 69 69 68 68 69 71 71 71 71 72 72 72 72 73 73 75 74 74 76 77 78 79 79 78 76 63 58 59 57 64 71
64 64 64 65 65 64 64 64 65 64 64 63 62 64 65 65 65 66 65 63 63 64 64 64 64 65 65 65 65 65 68 68 68 68 68 68 68 69 69 72 72 72 72 71 71 72 73 74 74 74 75 76 77 79 79 76 76 73 59 55 55 58 70
64 65 64 64 64 66 63 63 63 62 62 60 62 64 64 64 64 63 63 63 62 62 64 65 65 66 65 65 65 65 66 66 66 67 68 68 68 69 69 70 70 71 71 71 71 72 72 73 73 74 75 76 77 77 77 77 76 74 64 59 56 56 63
64 64 65 66 66 64 62 62 61 62 62 62 64 64 63 62 62 61 61 60 61 62 64 65 65 65 65 65 64 66 66 67 67 68 69 69 69 67 67 68 69 71 70 70 71 71 71 72 72 73 74 75 75 75 74 75 77 75 69 64 59 55 54
60 60 61 61 61 64 63 59 59 60 61 63 63 62 62 62 60 60 60 59 60 62 63 64 64 64 65 66 66 66 66 66 67 68 68 69 69 67 66 67 69 70 71 70 70 70 70 70 71 71 71 72 71 72 73 73 75 71 73 66 61 59 55
59 60 61 62 63 62 62 59 59 59 60 61 60 60 59 59 59 60 59 58 60 61 63 63 63 63 64 65 65 65 65 66 66 66 66 67 67 67 66 66 68 69 71 70 70 69 68 68 70 70 70 69 69 71 71 73 73 73 71 69 62 58 56
59 58 59 59 61 62 61 59 58 59 59 59 59 58 57 57 58 60 58 59 60 60 61 61 62 63 63 63 63 64 65 64 64 65 66 65 65 66 66 66 66 66 67 68 68 67 66 67 68 68 68 68 69 69 70 71 72 73 72 68 65 61 59
58 58 58 58 58 60 59 58 58 58 58 58 58 59 59 58 58 58 59 59 60 60 60 60 61 61 62 62 63 63 64 65 64 64 65 65 65 65 65 65 65 65 65 64 65 64 65 65 67 67 66 65 66 67 68 70 70 71 72 73 72 68 62
56 56 56 57 58 59 57 56 55 57 57 57 57 56 59 59 59 59 58 60 60 61 60 60 60 61 61 60 62 63 63 63 63 64 64 64 64 65 67 65 64 65 64 63 62 63 64 65 66 65 65 65 65 65 66 67 67 68 68 69 70 70 69
55 55 54 55 56 56 54 53 54 55 56 56 55 56 57 57 57 58 59 60 60 60 59 60 60 60 58 60 61 62 62 63 68 67 63 63 63 63 64 64 65 63 63 63 63 62 62 63 63 63 64 64 65 65 65 65 66 66 66 67 68 67 66
54 54 55 55 55 57 53 55 55 55 56 55 55 55 56 57 58 58 58 59 60 59 59 60 61 60 59 59 60 60 63 63 63 63 61 61 61 63 62 63 63 63 62 64 64 64 64 62 62 64 63 63 63 63 63 65 65 67 63 64 57 57 59
54 55 54 54 55 54 56 56 54 55 55 54 54 55 56 56 57 57 59 59 60 59 58 60 60 58 58 58 58 60 61 62 62 62 62 61 61 60 61 67 59 58 61 62 66 60 52 53 60 61 60 60 62 63 62 63 66 61 53 49 48 47 47
54 53 54 53 53 54 52 53 57 54 54 54 55 55 56 56 56 57 59 59 59 58 58 57 58 60 59 59 59 60 63 61 61 62 60 59 59 60 60 60 61 53 53 55 57 52 47 47 48 50 54 58 59 61 58 57 54 50 49 47 46 45 44
55 54 54 53 53 52 54 54 54 54 54 54 55 54 54 56 57 57 58 58 59 58 57 57 57 56 56 58 58 61 62 60 61 62 62 60 58 59 59 58 57 59 54 51 52 52 50 48 48 48 49 51 53 56 59 57 54 51 48 45 44 43 42
MSLP
1016.88 1016.91 1017.16 1017.08 1016.55 1016.47 1016.23 1015.55 1015.20 1015.35 1015.64 1015.88 1015.99 1016.11 1016.35 1016.64 1016.96 1017.23 1017.64 1017.91 1018.20 1018.59 1018.72 1018.76 1018.91 1019.03 1019.20 1019.28 1019.28 1019.32 1019.35 1019.52 1019.55 1019.67 1019.91 1019.91 1019.91 1020.11 1020.32 1020.35 1020.52 1020.64 1020.67 1020.88 1020.88 1020.84 1020.67 1020.59 1020.72 1020.76 1020.88 1020.96 1021.08 1021.11 1021.16 1021.11 1021.23 1021.20 1021.20 1021.23 1021.35 1021.43 1021.52
1016.79 1017.16 1017.55 1017.35 1017.35 1016.88 1016.55 1016.52 1016.11 1015.59 1015.59 1015.64 1015.72 1015.88 1016.08 1016.40 1016.79 1017.16 1017.40 1017.59 1017.84 1018.11 1018.40 1018.47 1018.72 1018.84 1018.91 1019.08 1019.08 1019.16 1019.32 1019.43 1019.43 1019.43 1019.59 1019.76 1019.72 1019.76 1019.79 1020.03 1020.16 1020.40 1020.40 1020.40 1020.47 1020.47 1020.43 1020.47 1020.52 1020.67 1020.79 1020.84 1020.91 1020.91 1021.03 1021.08 1021.11 1021.23 1021.32 1021.35 1021.47 1021.52 1021.55
1017.43 1017.32 1017.11 1016.88 1016.76 1016.47 1016.64 1016.79 1017.16 1016.88 1016.47 1015.99 1015.99 1016.03 1016.08 1016.23 1016.35 1016.72 1017.16 1017.52 1017.79 1017.96 1018.08 1018.23 1018.40 1018.55 1018.64 1018.84 1019.03 1019.08 1019.08 1019.20 1019.32 1019.40 1019.59 1019.72 1019.72 1019.64 1019.59 1019.76 1019.88 1020.03 1020.08 1020.03 1020.16 1020.28 1020.20 1020.35 1020.35 1020.40 1020.55 1020.72 1020.76 1020.84 1020.88 1020.99 1021.08 1021.16 1021.23 1021.28 1021.43 1021.52 1021.64
1016.99 1017.20 1016.96 1016.59 1015.88 1015.52 1016.03 1017.55 1017.28 1016.67 1016.35 1016.32 1016.11 1016.40 1016.40 1016.35 1016.28 1016.40 1016.59 1016.91 1017.40 1017.72 1017.99 1017.96 1017.99 1018.23 1018.35 1018.64 1018.84 1018.91 1018.96 1018.91 1018.96 1019.03 1019.16 1019.28 1019.43 1019.43 1019.64 1019.76 1019.79 1019.84 1020.03 1020.03 1019.88 1019.91 1019.96 1020.08 1020.28 1020.32 1020.35 1020.55 1020.64 1020.64 1020.76 1020.88 1020.96 1021.08 1021.16 1021.28 1021.40 1021.40 1021.52
1016.79 1016.64 1016.79 1016.88 1016.88 1016.84 1016.96 1017.20 1016.84 1016.40 1016.35 1016.67 1016.23 1016.40 1016.32 1016.40 1016.28 1016.43 1016.64 1016.67 1016.67 1016.96 1016.91 1017.11 1017.32 1017.52 1017.76 1017.96 1018.28 1018.47 1018.59 1018.67 1018.79 1018.84 1018.88 1018.96 1019.08 1019.23 1019.52 1019.72 1019.79 1019.84 1019.76 1019.67 1019.67 1019.76 1019.84 1020.03 1020.16 1020.23 1020.32 1020.40 1020.55 1020.59 1020.67 1020.72 1020.84 1020.91 1021.08 1021.20 1021.43 1021.43 1021.55
1017.16 1017.11 1017.08 1016.96 1016.84 1016.76 1016.79 1016.79 1016.76 1016.55 1016.59 1017.20 1016.67 1016.40 1016.32 1016.20 1016.20 1016.40 1016.43 1016.47 1016.55 1016.35 1016.35 1016.64 1017.03 1017.32 1017.72 1017.76 1017.91 1018.16 1018.32 1018.43 1018.52 1018.64 1018.76 1018.84 1019.03 1019.23 1019.40 1019.43 1019.55 1019.67 1019.76 1019.67 1019.52 1019.55 1019.59 1019.76 1019.91 1020.08 1020.23 1020.28 1020.40 1020.52 1020.59 1020.72 1020.72 1020.76 1020.96 1021.16 1021.32 1021.40 1021.55
1017.55 1017.35 1017.35 1017.23 1016.99 1016.96 1016.91 1016.84 1016.72 1016.64 1016.67 1016.84 1016.52 1016.47 1016.64 1016.67 1016.84 1016.47 1016.11 1016.16 1016.11 1016.55 1016.88 1017.20 1017.35 1017.52 1017.67 1017.72 1017.88 1018.03 1018.32 1018.40 1018.47 1018.64 1018.67 1018.84 1018.88 1019.08 1019.16 1019.20 1019.20 1019.32 1019.35 1019.40 1019.55 1019.43 1019.59 1019.67 1019.72 1019.79 1019.91 1020.11 1020.28 1020.43 1020.55 1020.67 1020.76 1020.72 1020.84 1021.08 1021.28 1021.28 1021.32
1017.67 1017.67 1017.52 1017.35 1017.03 1016.91 1017.08 1016.91 1016.72 1016.59 1016.52 1016.52 1016.55 1016.64 1016.84 1017.28 1017.35 1017.08 1016.55 1016.28 1016.40 1016.55 1016.84 1017.16 1017.43 1017.64 1017.79 1017.84 1017.88 1017.99 1018.11 1018.20 1018.20 1018.32 1018.52 1018.79 1018.91 1019.03 1019.03 1019.03 1019.03 1018.99 1019.11 1019.40 1019.32 1019.32 1019.43 1019.52 1019.55 1019.59 1019.72 1019.96 1020.16 1020.32 1020.40 1020.47 1020.59 1020.67 1020.79 1021.08 1021.23 1021.28 1021.20
1017.96 1017.76 1017.72 1017.47 1017.28 1016.91 1016.91 1016.96 1016.88 1016.84 1016.88 1016.91 1016.96 1016.96 1016.96 1017.28 1017.35 1016.99 1016.52 1016.35 1016.84 1016.91 1016.88 1016.84 1016.84 1016.88 1017.11 1017.55 1017.88 1017.91 1017.84 1017.96 1018.16 1018.23 1018.40 1018.59 1018.76 1018.91 1018.91 1018.88 1018.84 1018.72 1018.91 1019.03 1019.08 1019.03 1019.11 1019.28 1019.40 1019.52 1019.64 1019.79 1019.96 1020.16 1020.28 1020.35 1020.47 1020.55 1020.72 1020.88 1021.03 1021.16 1021.16
1018.35 1018.16 1017.88 1017.64 1017.35 1017.16 1017.03 1016.99 1017.03 1017.08 1017.23 1017.32 1017.28 1017.28 1017.35 1017.32 1017.20 1016.96 1016.64 1016.43 1016.55 1016.91 1017.23 1017.16 1017.20 1017.55 1017.76 1017.72 1017.72 1017.76 1017.91 1018.03 1018.03 1018.23 1018.28 1018.43 1018.40 1018.59 1018.64 1018.64 1018.67 1018.55 1018.64 1018.64 1018.67 1018.96 1018.91 1018.96 1019.16 1019.35 1019.55 1019.72 1019.79 1019.91 1020.03 1020.20 1020.28 1020.40 1020.47 1020.59 1020.72 1020.88 1020.99
1018.55 1018.32 1018.23 1018.11 1017.99 1017.76 1017.43 1017.40 1017.55 1017.76 1017.72 1017.72 1017.67 1017.59 1017.67 1017.67 1017.72 1017.72 1017.59 1017.28 1017.08 1017.16 1017.43 1017.59 1017.79 1018.32 1018.72 1018.59 1018.16 1018.03 1018.28 1018.32 1018.23 1018.28 1018.23 1018.16 1018.08 1018.20 1018.28 1018.35 1018.40 1018.43 1018.47 1018.52 1018.64 1018.59 1018.79 1018.99 1018.99 1019.23 1019.43 1019.59 1019.64 1019.72 1019.79 1019.88 1019.99 1020.16 1020.28 1020.28 1020.28 1020.43 1020.55
1018.67 1018.55 1018.55 1018.47 1018.40 1018.28 1018.28 1018.08 1017.84 1017.84 1017.91 1017.91 1017.88 1017.88 1017.88 1017.88 1017.88 1017.96 1017.99 1017.79 1017.52 1017.47 1017.64 1017.76 1017.52 1017.96 1018.76 1019.11 1019.32 1019.67 1019.76 1019.84 1018.99 1018.40 1018.20 1017.99 1017.96 1017.91 1017.88 1017.96 1018.08 1018.20 1018.28 1018.32 1018.52 1018.55 1018.59 1018.84 1019.03 1019.11 1019.28 1019.28 1019.32 1019.40 1019.43 1019.47 1019.59 1019.76 1019.88 1019.91 1019.99 1020.11 1020.20
1018.72 1018.72 1018.52 1018.59 1018.76 1018.76 1018.52 1018.40 1018.35 1018.23 1018.11 1018.11 1018.08 1017.99 1017.88 1017.79 1017.88 1017.84 1017.96 1017.84 1017.47 1017.43 1017.72 1017.91 1018.28 1018.40 1018.32 1018.47 1018.99 1019.59 1020.03 1019.67 1018.91 1018.35 1018.11 1017.91 1017.79 1017.64 1017.64 1017.67 1017.72 1017.88 1018.08 1017.99 1018.16 1018.40 1018.55 1018.55 1018.72 1018.76 1018.88 1018.96 1018.99 1019.11 1019.16 1019.23 1019.28 1019.40 1019.47 1019.55 1019.64 1019.76 1019.91
1018.67 1018.64 1018.43 1018.52 1018.76 1019.03 1019.11 1018.96 1018.76 1018.64 1018.52 1018.35 1018.20 1018.08 1017.99 1017.91 1017.84 1017.88 1017.79 1017.76 1017.55 1017.52 1017.72 1017.99 1018.20 1018.23 1018.40 1018.84 1019.16 1019.32 1019.28 1019.16 1018.96 1018.43 1017.84 1017.67 1017.64 1017.64 1017.64 1017.67 1017.67 1017.67 1017.64 1017.76 1018.08 1018.08 1018.08 1018.23 1018.32 1018.32 1018.40 1018.52 1018.59 1018.59 1018.64 1018.84 1018.99 1019.03 1019.08 1019.11 1019.23 1019.40 1019.55
1018.96 1018.91 1018.88 1019.08 1019.23 1019.23 1019.20 1019.23 1019.20 1019.03 1018.84 1018.72 1018.59 1018.55 1018.40 1018.28 1018.23 1018.03 1017.88 1017.72 1017.67 1017.55 1017.64 1017.84 1018.08 1018.28 1018.35 1018.88 1019.55 1019.76 1019.35 1019.43 1019.16 1018.16 1017.67 1017.43 1017.40 1017.55 1017.72 1017.76 1017.76 1017.67 1017.59 1017.55 1017.59 1017.67 1017.72 1017.67 1017.72 1017.96 1018.16 1018.11 1018.20 1018.23 1018.32 1018.55 1018.67 1018.72 1018.79 1018.96 1019.03 1019.03 1019.23
1018.96 1019.16 1019.23 1019.28 1019.28 1019.28 1019.23 1019.32 1019.28 1019.16 1018.91 1018.88 1018.91 1018.88 1018.84 1018.67 1018.47 1018.35 1018.32 1018.16 1017.84 1017.79 1017.76 1017.79 1017.99 1018.52 1018.84 1019.08 1019.23 1019.43 1019.35 1019.11 1018.52 1017.76 1017.52 1017.47 1017.52 1017.59 1017.72 1017.67 1017.59 1017.55 1017.59 1017.59 1017.64 1017.55 1017.43 1017.55 1017.64 1017.76 1017.88 1018.03 1018.03 1018.03 1018.16 1018.28 1018.23 1018.23 1018.28 1018.35 1018.59 1018.84 1018.91
1019.11 1019.32 1019.40 1019.32 1019.28 1019.35 1019.35 1019.28 1019.23 1019.20 1019.16 1019.11 1018.99 1018.84 1018.64 1018.55 1018.40 1018.23 1018.28 1018.32 1018.32 1018.32 1018.11 1017.99 1018.23 1018.52 1018.84 1019.03 1018.88 1018.79 1018.76 1018.52 1018.16 1017.96 1017.88 1017.72 1017.64 1017.64 1017.76 1017.64 1017.52 1017.52 1017.52 1017.55 1017.55 1017.64 1017.55 1017.35 1017.47 1017.52 1017.59 1017.79 1017.99 1018.16 1018.16 1017.99 1017.84 1017.79 1017.96 1018.08 1018.11 1018.28 1018.59
1019.40 1019.55 1019.67 1019.59 1019.52 1019.52 1019.40 1019.35 1019.40 1019.32 1019.32 1019.28 1019.23 1019.03 1018.91 1018.79 1018.59 1018.59 1018.79 1018.91 1018.99 1018.91 1018.59 1018.55 1018.84 1019.11 1019.11 1019.03 1018.79 1018.59 1018.52 1018.40 1018.16 1018.03 1017.99 1017.88 1017.96 1017.84 1017.72 1017.64 1017.64 1017.59 1017.55 1017.47 1017.52 1017.47 1017.47 1017.67 1017.40 1017.23 1017.23 1017.32 1017.47 1017.76 1017.84 1017.76 1017.52 1017.55 1017.64 1017.76 1017.84 1017.96 1018.11
1019.23 1019.43 1019.67 1019.72 1019.72 1019.72 1019.64 1019.59 1019.47 1019.40 1019.35 1019.43 1019.43 1019.28 1019.11 1018.96 1019.03 1019.23 1019.23 1019.35 1019.52 1019.52 1019.55 1019.40 1019.35 1019.32 1019.28 1018.84 1018.76 1018.79 1018.55 1018.43 1018.32 1018.23 1018.20 1018.11 1017.99 1017.88 1017.79 1017.84 1017.88 1017.88 1017.79 1017.64 1017.40 1017.35 1017.47 1017.40 1017.52 1017.52 1017.23 1017.11 1017.28 1017.40 1017.35 1017.40 1017.20 1017.35 1017.43 1017.52 1017.59 1017.72 1017.84
1019.16 1019.20 1019.52 1019.64 1019.67 1019.76 1019.76 1019.72 1019.67 1019.52 1019.47 1019.47 1019.40 1019.23 1019.08 1018.96 1019.16 1019.28 1019.23 1019.28 1019.35 1019.52 1019.72 1019.84 1019.79 1019.64 1019.47 1019.23 1019.08 1019.11 1018.88 1018.55 1018.43 1018.43 1018.40 1018.28 1018.20 1018.08 1018.03 1017.99 1018.03 1017.91 1017.79 1017.76 1017.64 1017.67 1017.59 1017.43 1017.43 1017.40 1017.47 1017.47 1017.35 1017.23 1017.08 1017.03 1016.88 1016.96 1017.11 1017.28 1017.40 1017.47 1017.79
1019.40 1019.40 1019.59 1019.67 1019.79 1019.79 1019.84 1019.88 1019.84 1019.76 1019.67 1019.64 1019.55 1019.43 1019.32 1019.32 1019.32 1019.35 1019.43 1019.43 1019.55 1019.64 1019.76 1019.76 1019.79 1019.79 1019.72 1019.59 1019.43 1019.28 1019.28 1019.11 1018.84 1018.55 1018.43 1018.35 1018.35 1018.40 1018.35 1018.28 1018.16 1018.03 1017.91 1017.88 1017.84 1017.84 1017.79 1017.76 1017.64 1017.43 1017.32 1017.28 1017.23 1017.32 1017.23 1016.88 1016.59 1016.64 1016.72 1016.88 1017.08 1017.20 1017.55
1019.23 1019.35 1019.67 1019.79 1019.79 1019.79 1019.79 1019.84 1019.88 1019.88 1019.99 1019.76 1019.67 1019.67 1019.59 1019.67 1019.52 1019.67 1019.88 1019.67 1019.72 1019.76 1019.76 1019.84 1019.91 1019.88 1019.76 1019.72 1019.55 1019.47 1019.32 1019.11 1019.11 1018.88 1018.52 1018.47 1018.47 1018.55 1018.55 1018.47 1018.35 1018.32 1018.08 1017.99 1017.88 1017.72 1017.59 1017.52 1017.47 1017.52 1017.35 1017.11 1017.11 1017.16 1017.16 1016.79 1016.52 1016.47 1016.55 1016.76 1016.96 1017.23 1017.67
1018.84 1019.20 1019.43 1019.67 1019.64 1019.72 1019.72 1019.67 1019.84 1019.99 1019.91 1019.91 1019.88 1019.84 1019.88 1019.76 1019.76 1019.88 1020.03 1020.08 1020.03 1019.91 1019.91 1019.88 1019.91 1019.91 1019.79 1019.72 1019.55 1019.40 1019.20 1019.08 1018.96 1018.84 1018.64 1018.52 1018.52 1018.59 1018.64 1018.55 1018.40 1018.23 1017.99 1018.16 1017.99 1017.88 1017.72 1017.55 1017.43 1017.28 1017.23 1017.11 1016.99 1017.08 1016.96 1016.67 1016.43 1016.43 1016.55 1016.67 1016.84 1017.20 1017.40
1018.72 1018.99 1019.20 1019.32 1019.43 1019.64 1019.72 1019.79 1019.91 1019.99 1020.03 1020.16 1020.23 1020.28 1020.11 1019.96 1019.91 1020.03 1020.23 1020.35 1020.28 1020.23 1020.20 1020.08 1020.03 1019.88 1019.76 1019.67 1019.52 1019.35 1019.23 1019.08 1018.96 1018.91 1018.79 1018.64 1018.59 1018.47 1018.32 1018.20 1018.11 1018.08 1017.88 1018.08 1018.08 1017.96 1017.67 1017.40 1017.28 1017.11 1016.99 1016.96 1016.91 1016.76 1016.84 1016.59 1016.35 1016.52 1016.64 1016.64 1016.67 1016.72 1016.96
1018.96 1019.08 1019.16 1019.35 1019.67 1019.96 1019.96 1019.99 1019.99 1020.16 1020.20 1020.35 1020.59 1020.52 1020.28 1020.16 1020.11 1020.20 1020.35 1020.40 1020.40 1020.35 1020.43 1020.35 1020.08 1019.88 1019.72 1019.55 1019.40 1019.28 1019.20 1019.08 1018.99 1018.96 1018.88 1018.84 1018.67 1018.47 1018.35 1018.16 1017.99 1017.72 1017.55 1017.67 1017.76 1017.72 1017.47 1017.28 1017.28 1017.11 1016.88 1016.67 1016.59 1016.43 1016.52 1016.52 1016.40 1016.52 1016.52 1016.43 1016.52 1016.64 1016.76
1019.43 1019.55 1019.72 1019.72 1019.79 1019.88 1019.99 1019.96 1019.96 1020.23 1020.55 1020.76 1020.84 1020.55 1020.40 1020.35 1020.32 1020.43 1020.59 1020.59 1020.47 1020.55 1020.52 1020.28 1019.99 1019.64 1019.52 1019.43 1019.35 1019.23 1019.11 1019.08 1019.03 1018.91 1018.88 1018.88 1018.67 1018.47 1018.35 1018.08 1017.96 1017.88 1017.76 1017.67 1017.67 1017.72 1017.47 1017.28 1017.20 1017.20 1016.96 1016.59 1016.47 1016.40 1016.32 1016.47 1016.40 1016.23 1016.32 1016.47 1016.67 1016.79 1016.88
1019.59 1019.67 1019.91 1019.99 1020.03 1019.88 1020.08 1020.28 1020.47 1020.76 1020.91 1020.99 1020.88 1020.76 1020.67 1020.59 1020.67 1020.91 1020.91 1020.88 1020.84 1020.91 1020.76 1020.35 1019.99 1019.67 1019.55 1019.47 1019.32 1019.28 1019.16 1019.08 1019.08 1018.99 1018.79 1018.72 1018.64 1018.43 1018.28 1018.11 1018.03 1017.88 1017.88 1017.91 1017.79 1017.76 1017.64 1017.47 1017.28 1017.16 1016.96 1016.67 1016.52 1016.52 1016.43 1016.43 1016.55 1016.35 1016.28 1016.47 1016.72 1016.79 1016.88
1019.79 1019.96 1019.99 1019.99 1020.11 1020.23 1020.47 1020.55 1020.76 1020.84 1020.96 1020.91 1020.88 1020.91 1020.99 1020.99 1021.20 1021.32 1021.23 1021.16 1021.16 1021.11 1020.72 1020.40 1020.16 1019.91 1019.72 1019.55 1019.40 1019.20 1019.08 1018.99 1018.84 1018.79 1018.79 1018.59 1018.47 1018.47 1018.28 1018.08 1017.88 1017.79 1017.79 1017.88 1017.96 1017.96 1017.84 1017.55 1017.32 1017.16 1016.99 1016.79 1016.72 1016.72 1016.76 1016.59 1016.55 1016.55 1016.40 1016.43 1016.55 1016.88 1017.20
1020.16 1020.35 1020.52 1020.55 1020.64 1020.67 1020.76 1020.99 1021.16 1021.32 1021.32 1021.16 1020.99 1021.03 1021.11 1021.20 1021.47 1021.59 1021.52 1021.52 1021.40 1021.08 1020.79 1020.55 1020.32 1020.16 1019.96 1019.72 1019.52 1019.35 1019.11 1018.99 1018.96 1018.84 1018.76 1018.72 1018.55 1018.52 1018.40 1018.11 1017.88 1017.72 1017.64 1017.79 1017.84 1017.84 1017.84 1017.64 1017.43 1017.35 1017.32 1017.20 1016.96 1016.79 1016.79 1016.76 1016.59 1016.47 1016.43 1016.32 1016.40 1016.47 1016.72
1020.35 1020.52 1020.67 1020.76 1020.79 1020.91 1020.91 1021.20 1021.35 1021.47 1021.40 1021.23 1021.16 1021.20 1021.32 1021.35 1021.59 1021.64 1021.64 1021.59 1021.28 1021.08 1020.88 1020.67 1020.52 1020.40 1020.28 1020.11 1019.96 1019.72 1019.35 1019.11 1019.03 1018.96 1018.88 1018.91 1018.79 1018.67 1018.64 1018.47 1018.28 1018.08 1017.96 1017.88 1017.96 1018.03 1018.08 1017.96 1017.79 1017.76 1017.79 1017.79 1017.43 1017.03 1016.96 1016.84 1016.76 1016.55 1016.47 1016.43 1016.35 1016.32 1016.32
1020.52 1020.67 1020.76 1020.88 1020.91 1020.88 1020.96 1021.20 1021.35 1021.35 1021.35 1021.40 1021.35 1021.35 1021.43 1021.52 1021.59 1021.67 1021.72 1021.43 1021.20 1021.08 1020.96 1020.84 1020.67 1020.55 1020.55 1020.43 1020.23 1019.99 1019.72 1019.32 1019.16 1019.11 1018.99 1018.99 1018.96 1018.96 1018.88 1018.84 1018.72 1018.67 1018.47 1018.35 1018.32 1018.32 1018.40 1018.28 1018.16 1018.20 1018.20 1018.08 1017.96 1017.55 1017.16 1017.03 1016.99 1016.88 1016.67 1016.55 1016.40 1016.23 1016.16
1020.72 1020.76 1020.79 1020.84 1020.99 1021.03 1021.20 1021.40 1021.55 1021.72 1021.84 1021.72 1021.52 1021.47 1021.47 1021.43 1021.55 1021.72 1021.55 1021.23 1021.11 1020.99 1020.96 1020.88 1020.88 1020.79 1020.64 1020.52 1020.35 1020.16 1019.91 1019.72 1019.35 1019.16 1019.11 1019.16 1019.03 1019.03 1018.99 1019.03 1019.03 1018.96 1018.84 1018.72 1018.72 1018.67 1018.64 1018.55 1018.35 1018.32 1018.32 1018.32 1018.16 1017.99 1017.67 1017.43 1017.35 1017.23 1016.99 1016.72 1016.47 1016.32 1016.23
1020.76 1020.79 1020.91 1021.11 1021.20 1021.32 1021.55 1021.76 1021.96 1022.03 1022.08 1022.03 1021.84 1021.76 1021.72 1021.76 1021.72 1021.72 1021.59 1021.40 1021.11 1020.91 1020.88 1020.84 1020.84 1020.84 1020.72 1020.59 1020.40 1020.16 1020.03 1019.96 1019.72 1019.32 1019.23 1019.28 1019.20 1019.16 1019.08 1018.99 1019.03 1019.03 1019.03 1018.99 1018.99 1018.91 1018.84 1018.67 1018.64 1018.55 1018.47 1018.35 1018.23 1018.03 1017.84 1017.64 1017.47 1017.35 1017.08 1016.67 1016.52 1016.40 1016.32
1020.91 1021.03 1021.20 1021.32 1021.47 1021.59 1021.84 1021.96 1022.08 1022.16 1022.11 1022.20 1022.20 1022.16 1022.08 1021.99 1021.91 1021.76 1021.59 1021.40 1021.23 1021.08 1020.88 1020.79 1020.72 1020.76 1020.72 1020.55 1020.43 1020.28 1020.11 1019.96 1019.67 1019.35 1019.28 1019.23 1019.28 1019.32 1019.20 1019.11 1019.11 1019.23 1019.28 1019.28 1019.20 1019.16 1019.03 1018.91 1018.88 1018.79 1018.64 1018.52 1018.28 1018.11 1017.91 1017.67 1017.43 1017.35 1017.20 1016.91 1016.67 1016.59 1016.52
1021.08 1021.28 1021.43 1021.55 1021.67 1021.67 1021.84 1021.96 1022.03 1022.08 1022.32 1022.47 1022.35 1022.23 1022.11 1022.03 1021.91 1021.76 1021.64 1021.47 1021.28 1021.16 1021.08 1020.91 1020.67 1020.55 1020.47 1020.40 1020.35 1020.23 1020.03 1019.91 1019.76 1019.59 1019.35 1019.20 1019.08 1019.08 1019.08 1019.11 1019.11 1019.20 1019.16 1018.91 1018.79 1018.91 1019.16 1019.20 1018.99 1018.76 1018.64 1018.59 1018.52 1018.47 1018.23 1017.79 1017.55 1017.23 1017.08 1017.11 1017.11 1017.20 1017.11
1021.23 1021.32 1021.47 1021.47 1021.55 1021.64 1021.72 1021.79 1022.03 1022.35 1022.52 1022.52 1022.40 1022.23 1022.23 1022.16 1022.03 1021.88 1021.72 1021.59 1021.40 1021.28 1021.20 1020.96 1020.79 1020.67 1020.55 1020.40 1020.32 1020.20 1020.03 1019.88 1019.72 1019.52 1019.32 1019.16 1019.08 1019.03 1018.91 1018.67 1018.72 1018.88 1019.03 1018.99 1018.64 1018.64 1018.99 1019.16 1018.96 1018.91 1018.88 1018.72 1018.40 1018.35 1018.40 1018.16 1017.47 1016.91 1016.99 1017.16 1017.11 1016.96 1016.91
1020.96 1021.20 1021.32 1021.32 1021.52 1021.55 1021.79 1022.08 1022.20 1022.35 1022.43 1022.43 1022.35 1022.32 1022.28 1022.23 1022.16 1021.99 1021.84 1021.67 1021.59 1021.47 1021.35 1021.23 1021.03 1020.84 1020.64 1020.43 1020.28 1020.11 1019.96 1019.88 1019.76 1019.47 1019.28 1018.99 1018.96 1018.99 1019.08 1019.08 1018.79 1018.64 1018.64 1018.67 1018.67 1018.64 1018.47 1018.43 1018.43 1018.40 1018.32 1018.47 1018.40 1017.91 1017.84 1017.67 1017.40 1017.16 1016.99 1017.08 1017.03 1016.84 1016.64
1020.67 1020.88 1021.03 1021.16 1021.20 1021.64 1021.99 1022.20 1022.32 1022.32 1022.35 1022.32 1022.32 1022.35 1022.32 1022.32 1022.20 1022.11 1021.99 1021.84 1021.72 1021.59 1021.47 1021.40 1021.32 1021.23 1020.99 1020.67 1020.40 1020.08 1019.88 1019.76 1019.64 1019.47 1019.32 1019.08 1018.96 1018.96 1019.08 1019.20 1019.28 1018.99 1018.64 1018.55 1018.59 1018.47 1018.35 1018.32 1018.28 1018.23 1018.20 1018.03 1018.16 1018.23 1017.76 1017.20 1016.99 1016.99 1016.96 1016.96 1016.91 1016.88 1016.99
Wind_Speed
9 9 11 13 10 9 4 3 10 12 12 12 13 13 13 12 12 12 12 12 13 11 8 9 9 7 8 8 7 6 6 5 4 6 6 6 7 7 7 7 8 7 6 6 6 7 6 5 6 6 5 5 4 4 3 3 3 2 1 1 2 3 4
5 8 10 9 7 8 7 7 7 2 6 11 12 13 12 13 12 12 12 13 13 13 11 11 10 9 9 8 7 6 7 6 5 5 6 6 6 7 7 7 8 8 7 7 6 6 6 6 6 6 6 5 5 4 4 3 3 3 3 2 3 2 1
10 11 11 8 6 4 2 5 9 8 6 6 2 5 9 12 14 14 13 12 12 12 10 11 11 10 9 8 7 8 7 7 6 6 7 7 7 7 6 7 7 8 7 7 7 6 6 6 6 6 7 6 6 5 5 4 4 3 3 3 3 3 2
7 8 8 8 10 10 6 9 5 2 2 2 8 6 5 5 8 10 13 14 13 12 12 11 12 11 10 9 9 8 8 8 8 7 7 6 7 6 6 5 6 6 6 7 7 7 7 7 7 6 7 6 6 6 5 5 5 4 3 3 3 3 3
7 7 7 5 1 3 6 10 8 4 2 1 6 4 6 5 4 7 7 10 14 16 16 15 13 12 10 11 9 8 9 9 7 6 6 6 6 6 7 6 6 6 7 6 6 7 6 7 7 7 7 6 6 5 6 5 5 4 4 4 4 3 4
9 8 7 6 5 4 6 8 8 5 4 6 3 3 4 6 6 7 6 8 9 10 11 12 13 12 12 11 10 9 8 7 7 6 6 6 7 7 8 7 7 6 6 7 6 6 6 6 7 7 8 6 6 6 6 6 5 5 4 4 5 5 5
8 8 7 6 5 7 7 7 6 4 6 5 3 3 5 6 8 7 8 7 7 8 6 7 7 8 9 9 10 10 10 9 8 8 6 6 6 7 7 7 7 7 6 4 6 6 6 6 7 8 8 7 6 6 6 6 6 5 5 5 5 5 5
8 8 7 7 8 7 8 7 8 7 6 4 5 6 8 8 7 4 4 6 7 9 9 9 7 8 7 7 9 10 10 10 8 8 7 7 6 6 7 7 7 7 6 7 7 6 7 6 6 6 8 8 7 6 7 6 6 6 5 6 5 5 5
10 9 8 8 6 8 8 8 7 8 7 7 7 6 8 11 9 5 5 6 4 5 7 6 8 9 10 10 9 10 10 10 9 8 9 9 7 7 7 7 7 7 8 8 7 6 7 7 6 6 7 7 7 7 6 7 7 5 6 6 6 7 6
10 10 9 9 8 8 10 9 8 8 8 7 6 5 6 6 7 6 4 2 3 5 4 4 2 1 1 6 8 7 6 7 8 9 9 10 9 9 8 7 7 7 8 9 7 8 7 7 8 7 7 7 7 7 6 6 6 6 6 7 7 7 7
8 10 10 11 10 8 9 10 10 8 7 7 6 6 6 6 5 5 4 2 2 3 3 2 4 7 7 6 2 4 2 3 5 7 9 10 9 10 8 7 8 7 8 8 8 8 7 6 6 7 8 9 8 8 7 7 7 7 7 7 7 8 8
8 9 10 10 10 10 11 9 8 8 8 6 6 6 5 5 7 7 3 4 2 1 4 2 5 6 4 3 6 9 7 7 4 4 6 8 8 9 9 8 7 8 7 7 8 7 7 8 6 7 9 9 8 8 8 8 8 8 9 8 7 7 7
9 9 11 12 10 8 8 10 11 9 7 6 7 6 4 4 5 6 6 2 0 2 4 2 2 3 5 4 1 1 1 9 10 5 5 4 4 4 5 6 4 5 7 8 9 8 8 8 8 8 9 9 9 9 9 9 8 8 9 9 8 9 8
12 11 12 12 11 10 10 9 9 10 10 8 6 6 7 7 6 4 3 4 5 5 5 3 3 5 4 3 5 4 8 11 9 5 4 4 3 3 3 2 2 3 2 4 6 9 10 10 10 10 9 10 10 10 9 9 9 8 9 9 9 9 8
12 12 12 12 10 9 10 10 9 8 10 10 10 8 5 4 4 5 6 7 6 5 4 3 3 4 5 5 6 8 9 8 8 7 5 5 5 4 4 2 2 2 1 1 4 6 7 8 10 10 10 10 10 10 9 9 9 8 8 9 9 9 9
14 12 11 11 10 8 8 10 10 9 9 10 10 9 8 7 5 7 8 8 7 6 7 6 6 8 6 5 4 6 8 9 7 4 4 4 4 4 4 4 4 4 3 2 0 1 3 3 4 6 9 10 10 10 9 8 8 10 15 13 9 9 9
12 11 10 11 10 9 7 8 9 9 10 9 8 9 8 8 8 9 11 10 10 9 6 5 7 7 6 4 1 1 2 3 2 1 1 1 2 4 6 6 4 3 3 2 2 1 2 4 5 5 6 7 8 8 8 8 8 14 15 16 17 11 9
12 12 10 10 9 8 9 8 8 8 8 7 8 8 8 8 8 9 10 10 10 7 6 7 8 7 5 3 3 2 3 2 1 2 2 2 1 0 1 2 3 3 2 2 1 2 1 3 4 5 6 6 7 8 8 8 11 15 15 16 17 15 10
13 12 10 9 8 8 9 8 8 8 7 6 5 7 8 8 9 8 7 7 7 6 8 7 5 4 4 5 5 5 3 3 4 3 3 2 0 0 1 0 1 0 1 3 3 3 3 4 3 4 3 5 6 7 8 8 12 13 15 16 17 18 14
11 13 10 8 6 6 6 7 6 6 6 6 5 5 5 7 8 8 7 6 5 6 5 5 5 4 5 4 5 5 6 4 4 4 4 3 3 4 2 1 1 0 1 2 3 3 4 4 3 3 3 3 3 3 4 6 10 15 16 16 17 18 15
11 11 11 9 6 5 5 5 5 5 6 6 5 4 4 6 6 5 6 6 6 5 5 5 4 4 3 4 4 4 3 4 4 4 4 4 3 3 4 3 3 3 2 2 3 3 4 4 4 3 3 2 3 3 4 5 9 13 15 17 18 18 14
12 11 10 6 7 5 5 5 4 5 5 4 6 5 3 4 5 6 4 4 5 4 4 4 4 4 4 4 4 3 3 2 2 2 2 2 3 3 3 3 2 3 3 3 3 3 3 3 3 5 6 4 3 4 5 6 6 6 10 13 14 14 8
12 11 9 6 5 5 5 6 6 6 7 9 9 7 5 3 4 6 4 3 3 4 4 4 5 5 4 5 5 5 4 5 3 3 4 3 3 2 2 2 2 2 2 2 3 3 3 3 4 4 5 5 4 5 6 6 7 8 6 7 10 8 7
11 9 8 6 5 7 8 7 8 8 10 10 10 7 4 4 4 6 6 3 3 3 3 3 4 4 4 5 5 5 5 4 4 5 5 5 5 4 3 2 1 1 1 2 3 4 4 4 4 4 4 5 5 5 6 7 6 8 6 7 10 10 7
10 8 6 6 7 8 8 7 8 9 10 10 10 7 6 5 5 6 6 4 3 4 3 2 2 3 4 4 4 4 4 4 4 4 4 5 5 5 5 5 4 4 3 2 3 4 4 3 4 4 4 4 5 7 8 7 5 6 10 11 11 9 5
8 7 8 8 7 7 7 8 11 11 10 9 6 6 7 6 6 6 6 6 6 7 7 6 3 2 2 3 3 3 4 4 5 5 5 5 6 6 6 5 3 3 4 4 3 4 5 4 3 3 3 3 4 5 5 5 5 4 11 10 8 9 5
8 9 9 8 7 8 9 8 9 8 7 5 5 6 6 7 7 8 7 7 8 8 8 8 6 6 5 5 4 3 4 4 4 5 6 5 5 5 4 4 4 4 2 3 4 4 4 4 3 3 3 4 5 5 5 4 5 5 7 7 9 12 10
11 10 8 8 9 8 7 7 8 7 7 6 7 6 6 6 7 6 6 7 8 7 7 8 8 7 7 7 4 4 4 5 6 4 5 5 6 7 7 6 5 4 2 1 2 3 4 4 5 6 7 7 7 7 6 7 9 6 8 8 6 5 9
10 9 8 8 8 6 7 7 6 6 4 5 6 6 6 6 5 4 5 6 5 5 6 7 7 8 8 7 5 5 4 4 5 7 5 6 7 7 8 7 7 7 5 2 3 4 4 5 6 6 6 6 6 6 6 6 6 9 8 11 11 9 6
9 8 8 7 6 5 6 6 4 5 4 5 5 5 5 5 5 4 4 5 4 4 5 6 7 7 7 7 7 8 6 4 5 6 6 5 6 6 7 7 7 7 7 5 5 5 6 5 5 5 6 6 7 7 6 6 6 8 11 11 13 14 12
9 8 7 7 6 6 6 6 6 6 6 5 5 4 4 3 3 2 3 4 3 4 4 5 6 6 6 7 7 7 7 4 4 5 6 4 4 5 6 5 6 6 7 7 6 6 6 5 5 5 5 6 7 8 8 7 6 6 9 12 12 12 11
7 6 6 6 6 6 6 6 6 6 5 5 5 5 4 4 3 3 3 4 3 3 3 4 5 5 6 6 6 6 7 7 4 4 5 4 3 3 3 3 4 6 6 6 6 6 6 6 6 5 5 5 6 6 7 7 6 6 6 6 7 7 9
6 6 6 6 5 5 5 5 4 3 3 3 3 4 5 5 6 5 5 6 5 3 2 3 4 4 4 6 7 6 6 7 6 4 3 3 4 3 4 5 5 5 5 6 6 6 6 6 6 6 6 6 6 6 6 7 6 6 6 7 6 6 7
7 5 4 4 4 5 5 4 3 2 1 2 4 4 4 4 5 5 6 6 6 5 3 3 3 4 4 5 5 5 5 6 10 8 0 1 1 3 5 5 4 5 6 6 7 6 6 6 6 6 6 6 6 7 7 8 7 5 6 8 8 8 8
6 7 7 6 5 5 2 1 1 1 3 4 3 3 4 5 5 5 5 6 6 5 5 4 4 4 5 5 4 6 5 5 5 6 5 2 1 1 0 2 4 5 5 4 3 5 5 6 5 5 5 5 6 7 8 9 9 7 6 9 9 9 8
8 8 6 5 4 3 2 2 1 4 3 1 2 3 4 4 5 5 6 6 6 6 6 5 4 4 5 5 5 5 6 6 6 7 5 2 0 1 2 3 3 2 2 5 8 10 3 4 2 4 4 6 6 4 5 8 10 16 18 15 13 13 10
9 6 6 5 4 3 1 4 5 4 2 1 2 3 3 4 4 4 5 6 6 6 5 5 5 5 5 5 5 6 5 5 6 7 6 3 1 1 1 3 6 9 9 5 5 5 9 10 9 10 9 4 7 9 10 13 15 16 15 12 11 11 13
8 8 6 4 4 3 6 5 4 4 2 1 3 3 3 3 4 5 5 5 6 6 6 6 5 6 6 6 6 7 6 5 5 6 7 6 3 3 4 4 3 6 8 10 8 10 10 10 10 10 11 13 10 6 9 13 14 15 15 14 12 12 12
Wind_Direction
46 36 24 15 22 27 19 175 173 165 165 170 174 172 168 167 167 166 168 172 175 169 172 171 175 173 176 180 183 186 193 183 190 182 181 179 176 170 172 176 174 180 180 179 187 187 197 187 185 194 193 199 206 211 216 221 232 217 230 238 226 207 218
121 87 84 70 37 347 5 19 18 155 155 174 174 173 169 168 166 168 172 174 174 174 174 175 176 180 178 183 183 186 193 188 189 185 181 185 181 175 173 175 173 179 181 187 182 196 190 195 185 192 195 198 204 200 200 206 214 192 203 201 185 161 181
83 95 100 127 140 203 257 34 36 35 40 66 108 160 169 172 170 172 171 173 174 174 171 174 181 180 180 178 181 193 195 187 187 182 180 188 186 181 179 173 179 179 187 182 182 190 195 194 196 194 192 194 199 191 191 193 203 198 201 199 203 190 194
98 97 122 152 173 185 152 71 345 358 352 97 104 100 79 147 173 174 172 173 172 172 174 180 178 180 180 180 185 191 196 199 192 186 181 181 186 184 178 180 184 185 187 192 187 186 192 191 194 196 192 187 194 194 185 192 198 197 196 190 205 212 217
95 104 110 118 139 26 87 141 204 215 181 7 92 83 95 57 124 162 176 183 177 178 181 179 181 181 182 182 187 189 195 196 198 192 186 180 181 180 186 188 187 193 197 199 197 191 180 186 191 190 190 184 186 189 191 191 197 194 193 192 205 211 227
83 70 62 58 53 74 107 133 158 182 134 76 69 101 93 97 98 136 159 177 199 197 186 177 178 179 182 186 185 189 189 196 195 195 192 186 177 181 189 197 190 196 197 203 200 201 183 182 182 184 186 188 185 186 190 193 201 195 196 194 207 210 215
77 72 63 52 59 82 80 90 98 91 92 102 100 70 63 57 83 106 130 140 155 164 172 184 184 182 188 184 190 187 190 192 189 193 192 193 193 187 191 196 197 196 199 190 201 201 193 184 184 183 184 187 189 189 191 196 200 204 199 198 211 217 210
75 70 53 50 76 81 80 81 83 84 84 90 86 85 95 91 65 52 112 152 153 157 162 160 165 185 193 192 191 193 194 195 191 187 185 193 199 203 197 199 199 197 191 192 201 195 200 196 189 186 184 187 191 194 194 195 199 203 199 205 215 221 210
78 69 62 53 49 82 88 82 83 81 74 71 68 70 90 106 123 161 178 181 168 202 176 150 179 190 179 180 188 196 195 193 193 186 187 192 196 206 208 205 203 197 194 197 199 200 197 200 197 191 189 188 187 189 193 196 199 200 198 208 212 218 221
80 74 63 56 55 66 79 78 72 64 62 59 58 68 81 110 143 174 191 191 163 189 124 166 170 47 179 182 186 182 172 187 191 192 192 195 197 203 211 210 207 202 201 201 197 197 204 198 197 193 195 195 196 194 190 192 202 203 202 204 207 216 222
81 81 72 63 57 55 67 69 69 68 64 63 60 60 69 85 82 43 17 348 198 181 125 63 48 30 7 337 233 184 156 151 157 189 200 201 197 201 202 210 209 205 208 203 204 202 195 201 196 193 196 201 202 203 203 199 198 204 210 211 208 212 217
84 84 81 74 65 58 63 62 67 70 71 71 75 71 69 90 123 135 138 247 278 84 78 99 131 120 118 257 315 350 10 330 287 203 195 198 205 205 204 200 205 205 210 207 206 204 201 192 194 194 199 204 205 205 206 204 200 202 207 209 210 213 216
96 90 85 77 70 69 67 63 63 63 64 67 68 67 58 74 102 118 140 171 261 81 95 59 52 108 183 172 95 122 273 244 240 217 197 194 183 186 194 191 184 198 210 208 205 201 202 201 197 200 198 205 205 206 207 205 204 204 205 207 207 209 213
100 93 84 79 75 69 67 67 66 68 67 59 57 65 60 48 51 77 84 81 66 58 59 52 106 139 165 141 145 159 223 240 250 227 189 162 164 179 179 154 125 122 170 186 220 211 202 202 202 204 203 205 204 209 205 204 206 208 207 206 205 205 212
96 90 89 88 82 75 73 70 64 62 66 63 56 57 68 81 77 68 68 56 48 51 49 16 89 115 167 179 169 196 227 246 234 204 193 184 183 185 177 179 162 158 126 150 186 213 232 214 203 201 209 212 211 212 208 205 209 207 206 208 212 210 214
100 93 89 90 89 84 83 80 74 66 64 63 62 60 56 51 63 75 73 67 63 49 26 6 75 104 111 126 161 188 210 211 222 205 188 178 182 170 157 184 179 174 167 141 2 238 189 211 213 214 212 212 215 215 211 212 212 213 209 205 205 211 217
93 91 86 82 80 80 80 79 75 69 64 61 58 60 54 51 49 58 64 61 61 53 43 32 55 62 75 70 93 157 202 212 235 257 236 214 166 167 171 188 183 195 176 179 194 237 296 201 186 189 196 211 220 220 222 222 220 216 210 211 210 207 212
95 91 85 78 75 70 72 73 74 68 65 62 58 58 59 52 49 53 57 55 48 41 41 46 46 46 44 17 1 30 33 32 59 79 60 78 77 214 255 168 166 185 200 202 212 236 218 276 230 197 190 192 200 212 220 227 231 223 216 214 216 214 213
107 98 90 84 76 71 68 71 73 68 63 61 63 66 60 62 63 60 64 72 80 74 62 45 37 37 34 38 24 357 10 19 31 41 48 43 40 230 181 83 96 214 253 241 244 233 234 232 246 261 234 191 187 203 211 221 229 229 226 223 220 219 219
112 110 103 90 84 78 77 77 76 72 69 64 53 55 62 65 69 70 66 65 60 60 66 78 62 31 28 27 32 357 351 7 27 22 12 16 9 14 39 29 3 266 210 261 288 279 273 271 260 255 258 262 247 225 221 220 225 220 223 226 226 224 218
112 110 110 109 97 80 77 82 85 81 66 60 61 45 53 70 73 70 67 64 62 53 52 44 51 49 45 39 27 27 5 347 0 36 20 12 14 21 26 28 17 356 319 261 239 244 260 279 293 288 273 243 220 235 248 241 233 226 222 222 224 227 220
122 115 111 114 113 98 81 79 91 87 70 52 54 53 50 74 81 79 68 60 70 58 53 53 50 38 29 26 15 28 7 335 326 359 28 34 25 29 25 22 28 5 340 306 265 255 247 269 273 281 286 275 250 242 244 250 244 220 219 225 230 229 228
118 114 117 121 114 105 94 85 75 62 61 53 54 57 48 40 69 81 76 62 50 58 50 45 41 32 23 19 10 7 8 10 349 346 353 354 21 36 30 22 4 345 336 320 300 272 252 241 242 244 254 269 272 257 257 258 231 218 191 190 210 204 218
103 103 102 104 86 72 74 78 75 62 64 59 49 43 33 34 57 70 68 53 36 48 40 53 40 26 23 13 5 2 359 1 5 4 2 354 346 346 344 329 292 295 324 325 322 311 291 265 256 249 245 254 263 261 271 269 240 202 209 196 171 181 199
99 99 98 89 85 81 73 72 78 74 64 58 49 27 31 35 49 57 51 46 41 44 32 28 51 28 20 2 353 356 1 359 357 357 355 355 347 330 324 320 312 311 319 321 313 298 291 279 268 268 265 263 264 268 264 268 277 178 199 207 204 197 209
102 92 84 86 78 82 76 65 62 57 58 58 45 33 32 30 39 42 37 20 21 20 5 345 324 327 355 341 353 346 360 359 357 350 352 347 336 335 324 309 301 294 302 309 305 305 303 294 273 269 270 271 273 283 282 290 284 216 199 202 214 210 214
95 96 93 82 75 67 64 61 70 71 68 66 57 44 33 31 36 33 29 27 25 10 354 344 332 353 351 348 338 350 352 354 358 345 344 345 334 323 325 329 315 295 280 299 315 315 326 339 339 325 320 320 316 307 313 337 326 305 281 245 214 216 210
92 82 76 77 77 74 66 65 62 60 50 41 50 50 45 45 44 36 28 22 12 349 339 345 348 350 351 345 328 342 351 350 345 353 348 341 346 347 337 334 331 319 278 260 309 342 352 358 7 7 7 4 352 343 338 339 338 327 326 323 299 260 230
93 92 86 76 66 64 78 69 66 65 65 46 45 40 43 52 49 44 29 17 345 333 343 346 353 354 352 348 346 337 343 348 348 341 348 346 349 349 340 337 344 344 354 11 5 16 9 11 10 11 8 1 343 335 340 343 334 326 320 318 314 299 245
96 93 86 82 87 81 78 77 74 69 54 48 42 41 44 52 40 26 27 351 316 334 347 350 349 352 350 346 341 332 329 345 344 338 336 350 348 350 354 358 352 355 9 10 19 19 13 2 2 4 2 349 329 330 334 343 342 335 333 325 317 316 307
105 102 97 87 75 69 69 74 66 50 40 31 35 23 33 64 49 13 4 314 321 336 349 344 345 346 344 338 334 334 324 321 338 334 324 343 358 359 355 6 4 9 3 3 8 10 3 348 354 358 347 340 330 324 328 335 340 333 331 329 330 334 339
90 92 92 82 72 69 67 64 62 57 41 9 2 359 356 355 7 343 298 287 293 307 334 345 341 337 332 329 330 326 330 320 317 324 320 343 350 359 1 15 7 4 356 1 356 354 348 340 338 342 339 330 322 316 312 317 321 321 315 313 319 325 354
94 89 86 87 93 85 76 76 72 70 44 17 331 346 352 4 354 346 329 322 302 294 310 332 328 324 325 326 325 324 330 326 297 283 331 359 345 351 4 4 8 3 360 356 349 344 338 336 333 330 329 320 319 313 313 312 317 322 317 319 329 339 344
112 92 78 88 82 89 84 95 95 68 45 352 348 3 3 5 354 341 339 336 332 315 308 314 314 314 313 313 319 320 321 322 320 316 16 316 351 12 359 2 12 9 353 343 334 330 329 333 331 326 320 321 321 323 320 317 320 329 329 327 329 332 333
117 113 109 99 97 102 121 118 141 167 62 49 8 8 12 355 338 333 331 326 322 329 314 301 294 305 309 309 317 318 319 317 313 302 278 255 330 20 137 29 348 341 324 309 294 312 338 327 316 321 325 324 322 325 321 319 318 321 333 316 315 315 317
122 121 124 136 138 137 168 174 122 87 96 40 15 24 6 338 319 323 331 329 327 326 319 307 301 298 302 306 310 308 314 318 319 314 285 238 219 6 329 323 333 279 281 299 319 335 32 157 309 302 317 322 302 284 293 303 300 305 312 312 315 311 299
133 131 139 149 116 166 110 87 110 117 91 41 23 16 350 326 322 341 350 4 359 358 348 339 321 310 304 308 305 304 304 312 313 313 293 279 282 272 277 303 318 323 324 310 305 314 335 347 341 339 334 330 311 308 292 282 287 293 300 316 318 307 304
138 148 155 161 157 140 111 119 101 106 89 19 25 5 1 355 3 9 4 7 7 1 2 1 356 337 317 307 299 299 303 298 300 306 300 301 312 314 308 314 319 320 318 322 331 336 337 331 327 323 321 317 310 300 312 310 305 309 316 318 313 311 323